Terminal Aerodrome Forecast
Issued by NWS Newport/Morehead City, NC

Home | Current Version | Previous Version | Text Only | Print | Product List | Glossary On
Versions: 1 2 3 4 5 6 7 8 9 10 11 12 13 14 15 16 17 18 19
000
FTUS42 KMHX 271500 AAA
TAFEWN
TAF AMD
KEWN 271543Z 2716/2812 05010KT P6SM SCT020
      TEMPO 2716/2718 BKN020
     FM271800 05008KT P6SM SCT035
     FM281000 VRB03KT 5SM BR SCT004=

USA.gov is the U.S. government's official web portal to all federal, state and local government web resources and services.